Find Mandrake 2A

NORAD ID: 48907 Int'l Des: 2021-059 Owner: SDA/DARPA2 Country: US operational
LEOCIRCULARRETROGRADE

リアルタイム位置

3D地球を読み込み中...

Mandrake 2Aについて

説明を読み込み中...

次回通過

Passes for default location (London). Set your location on the main map for personalized predictions.

高度履歴

Loading altitude history...

軌道要素

1 48907U 21059AE 26132.57024294 .00014536 00000-0 23001-3 0 9990
2 48907 97.7049 319.6802 0006270 118.5254 241.6630 15.53542397271596
Epoch: May 12, 2026 • Age: 5 hours

現在のステータス

高度 415.3 km
速度 7.67 km/s
衛星直下点 67.48°N, 151.16°E
打ち上げ日 Jun 30, 2021
運用期間 4.8 years
タイプ other

技術仕様

分類 Payload
質量 23.00 kg
乾燥質量 23.00 kg
総質量 23.00 kg
長さ 0.50 m
直径 0.50 m
スパン 0.50 m
形状 Box + pan
製造者 ADIG
バスタイプ Corvus-XL
フェーズステータス In Orbit
所有者/国 SDA/DARPA2/US

Most Searched